Погода в Саншайн-Кост

Австралия     26°36′05″S   153°05′32″E
темп.,
°C
ветер,
м/с
пор.,
м/с
влажн.,
%
обл.,
%
осадки,
мм/ч
давл.,
гПа
погр.,
м
4 августа, ср
ср401:00+17юз276093 0.0 1017373
04:00+14зюз25464 0.0 1017107
07:00+10зюз14570 0.0 101999
10:00+18зюз47300 0.0 10191182
13:00+21зюз48210 0.0 10161853
16:00+19юз39290 0.0 10161759
19:00+14юз310400 0.0 10191124
22:00+12юз39490 0.0 1021648
5 августа, чт
чт501:00+11юз413480 0.0 1020979
04:00+11юз414550 0.0 1019803
07:00+10юз311560 0.0 1020599
10:00+17ююз35320 0.0 10201052
13:00+21ююз24222 0.0 10171573
16:00+20вюв133412 0.0 1016838
19:00+11з116717 0.0 101915
22:00+9зсз11725 0.0 102120
6 августа, пт
пт601:00+8зюз11824 0.0 102022
04:00+7з11854 0.0 102027
07:00+7зюз118129 0.0 102234
10:00+19ююв224313 0.0 1023916
13:00+20в324219 0.0 10211392
16:00+18в3355100 0.0 1021589
19:00+12ю118388 0.0 102331
22:00+10зюз1194100 0.0 102428
7 августа, сб
сб701:00+10зюз11974 0.0 102419
04:00+9зюз119798 0.0 102421
07:00+10зюз1190100 0.0 102634
10:00+19юв115530 0.0 1026830
13:00+22всв33459 0.0 10231731
16:00+19всв34620 0.0 1022562
19:00+13зсз01910 0.0 102429
22:00+11зсз119818 0.0 102524
8 августа, вс
вс801:00+11з11989 0.0 102428
04:00+9з11975 0.0 102426
07:00+8зюз11820 0.0 102524
10:00+20вюв12400 0.0 1025785
13:00+21вюв33390 0.0 10231518
16:00+19юв35520 0.0 1023842
19:00+14ююв25820 0.0 1025192
22:00+12ююз12940 0.0 102659